Погода в Ивантеевке

Россия / Саратовская область     52°16′03″N   49°06′09″E
темп.,
°C
ветер,
м/с
пор.,
м/с
влажн.,
%
обл.,
%
осадки,
мм/ч
давл.,
гПа
погр.,
м
6 марта, сб
сб601:00−9сз239235 0.0 101321
04:00−10сз228744 0.0 101521
07:00−11з228876 0.0 101521
10:00−9сз229082 0.0 101650
13:00−6с228797 0.0 1016201
16:00−6ссв359099 0.0 1015226
19:00−8всв2290100 0.0 101426
22:00−8св2289100 0.0 101321
7 марта, вс
вс701:00−9ссв2391100 0.0 101231
04:00−12с239299 0.0 101221
07:00−14ссз229320 0.0 101220
10:00−11з229043 0.0 101490
13:00−7зюз469476 0.1 1013399
16:00−7юз599072 0.1 1013460
19:00−9ююз6149287 0.0 1011370
22:00−6ююз8178693 0.0 1009700
8 марта, пн
пн801:00−4ююз111889100 0.5 1005916
04:00−4юз101794100 1.9 1003977
07:00−3юз91695100 0.8 1002784
10:00−2зюз91493100 1.1 10031100
13:00−1зюз71190100 0.6 10041042
16:00−1зюз61183100 1.3 1003777
19:00−3юз61384100 0.0 1004561
22:00−7з6148484 0.1 1006378
9 марта, вт
вт901:00−12зюз59910 0.0 1009152
04:00−14зюз47940 0.0 1011110
07:00−16з44950 0.0 101262
10:00−13зюз36930 0.0 1014159
13:00−11зюз249230 0.0 1014231
16:00−10з129459 0.0 1014127
19:00−14ююз019587 0.0 101421
22:00−15ссв119593 0.0 101620
10 марта, ср
ср1001:00−14ссв2395100 0.0 101529
04:00−15ссв4696100 0.1 1016121
07:00−18с4896100 0.0 1016189
10:00−18с5994100 0.1 1018287
13:00−17ссз5891100 0.0 1019382
16:00−16ссз489098 0.0 1019576
19:00−19сз479260 0.0 102196
22:00−22ссз449330 0.0 102366